{"data":{"norad_id":43236,"intl_designator":"2018-025A","name":"LKW-4","alt_names":[],"object_type":"PAYLOAD","status":"ACTIVE","operator":null,"country":"PRC","launch_date":"2018-03-17","launch_site_code":"JSC","launch_vehicle":null,"mission":null,"orbit_class":"UNKNOWN","rcs_meters":null,"size_class":null,"mass_kg":null,"dimensions":null,"purposes":[],"wikipedia_slug":null,"has_3d_model":false,"image_url":null,"decayed_at":null,"tle_current":{"epoch":"2026-09-19T22:57:51.477984Z","epoch_age_seconds":58183,"freshness":"FRESH","line1":"1 43236U 18025A   26262.95684581  .00047534  00000+0  38695-3 0  9994","line2":"2 43236  97.6373  81.8835 0001880 313.9083  46.2024 15.70536544474869","mean_motion":15.70536544,"eccentricity":0.000188,"inclination_deg":97.6373,"raan_deg":81.8835,"arg_perigee_deg":313.9083,"mean_anomaly_deg":46.2024,"bstar":0.00038695,"rev_number":47486,"period_min":91.688410912901,"perigee_km":356.09626134752,"apogee_km":358.62880917278,"semimajor_km":6735.4995352601,"source":"CELESTRAK","updated_at":"2026-09-20T09:00:14.312049Z"}}}